This is the latest recevied weather packets stored in our database for station/object BRIVER. If no packets are shown the sender has not sent any weather packets the latest 10 day(s).
| Time | Temp. | Humidity | Pressure | Rain* | Wind** | Luminosity | Snow |
|---|---|---|---|---|---|---|---|
| 1777147249 | 11.11° C | 35% | 1007.9 hPa | 0 mm | - | - | - |
| 1777146949 | 11.11° C | 33% | 1008 hPa | 0 mm | - | - | - |
| 1777146649 | 10° C | 40% | 1008 hPa | 0 mm | - | - | - |
| 1777146410 | 10° C | 35% | 1008 hPa | 0 mm | - | - | - |
| 1777146349 | 10° C | 34% | 1007.9 hPa | 0 mm | - | - | - |
| 1777146049 | 10.56° C | 34% | 1008 hPa | 0 mm | - | - | - |
| 1777145870 | 11.11° C | 34% | 1008.2 hPa | 0 mm | - | - | - |
| 1777145749 | 11.67° C | 36% | 1008.1 hPa | 0 mm | - | - | - |
| 1777145449 | 11.67° C | 39% | 1008.2 hPa | 0 mm | - | - | - |
| 1777145149 | 11.67° C | 39% | 1008.3 hPa | 0 mm | - | - | - |
| 1777144849 | 11.67° C | 36% | 1008.3 hPa | 0 mm | - | - | - |
| 1777144791 | 11.67° C | 38% | 1008.3 hPa | 0 mm | - | - | - |
| 1777144549 | 11.11° C | 36% | 1008.3 hPa | 0 mm | - | - | - |
| 1777144249 | 11.67° C | 35% | 1008.3 hPa | 0 mm | - | - | - |
| 1777143949 | 10.56° C | 41% | 1008.4 hPa | 0 mm | - | - | - |
| 1777143710 | 10.56° C | 39% | 1008.4 hPa | 0 mm | - | - | - |
| 1777143649 | 10.56° C | 39% | 1008.4 hPa | 0 mm | - | - | - |
| 1777143349 | 10.56° C | 35% | 1008.4 hPa | 0 mm | - | - | - |
| 1777143170 | 11.11° C | 43% | 1008.4 hPa | 0 mm | - | - | - |
| 1777143049 | 10.56° C | 35% | 1008.3 hPa | 0 mm | - | - | - |
| 1777142749 | 11.11° C | 40% | 1008.3 hPa | 0 mm | - | - | - |
| 1777142631 | 11.11° C | 43% | 1008.3 hPa | 0 mm | - | - | - |
| 1777142449 | 10.56° C | 35% | 1008.3 hPa | 0 mm | - | - | - |
| 1777142149 | 11.11° C | 33% | 1008.3 hPa | 0 mm | - | - | - |
| 1777142090 | 11.67° C | 39% | 1008.3 hPa | 0 mm | - | - | - |
* Rain latest hour (hover to see other rain measurements)
** Current wind speed in m/s (hover to see current wind gust speed)